Simultaneous Nadir Overpasses (SNOs) Predictions

Prediction of SNOs between GOES-15 and TERRA Satellite Orbit:

Table of predicted SNOs for the next 14.0 days since TLE Epoch: 9/10/2022
Index Date Time (GOES-15) GOES-15 Lat,Lon TERRA Lat,Lon Distance(km) Time Diff (sec)
1 09/10/2022 18:46:11 -0.28,-127.74 -0.23,-127.98 27.15 80
2 09/12/2022 18:36:35 -0.28,-127.69 -0.84,-125.02 303.82 80
3 09/13/2022 06:57:58 0.30,-127.63 -0.28,-130.21 293.82 80
4 09/15/2022 06:43:02 0.29,-127.58 0.34,-127.25 36.74 80
5 09/17/2022 06:30:46 0.28,-127.52 0.96,-124.29 366.62 80
6 09/17/2022 18:52:01 -0.30,-127.54 0.10,-129.46 217.50 80
7 09/19/2022 18:42:25 -0.29,-127.48 -0.53,-126.50 111.96 80
8 09/20/2022 07:03:48 0.31,-127.43 -0.57,-131.69 484.27 80
9 09/21/2022 18:30:08 -0.28,-127.41 -1.10,-123.53 441.10 80
10 09/22/2022 06:51:31 0.30,-127.36 0.01,-128.72 155.34 80
